| time (UTC) | temp C | wind direction | speed KPH | gust KPH | rain 1hr cm | rain 24hr cm | rain mn cm | humidity % | barometer mb |
| 20260506223025 | 25 | 208 | 11.3 | 25.7 | 0.00 | 0.00 | 0.00 | 34 | 1011.3 |
| 20260506221523 | 25 | 275 | 12.9 | 25.7 | 0.00 | 0.00 | 0.00 | 31 | 1011.3 |
| 20260506220021 | 25 | 291 | 6.4 | 20.9 | 0.00 | 0.00 | 0.00 | 30 | 1011.5 |
| 20260506214519 | 25 | 252 | 9.7 | 20.9 | 0.00 | 0.00 | 0.00 | 29 | 1011.8 |
| 20260506213016 | 25 | 202 | 6.4 | 19.3 | 0.00 | 0.00 | 0.00 | 31 | 1011.9 |
| 20260506211514 | 25 | 279 | 9.7 | 19.3 | 0.00 | 0.00 | 0.00 | 30 | 1012.2 |
| 20260506210015 | 26 | 250 | 8.0 | 14.5 | 0.00 | 0.00 | 0.00 | 28 | 1012.3 |
| 20260506204511 | 25 | 191 | 8.0 | 17.7 | 0.00 | 0.00 | 0.00 | 30 | 1012.4 |
| 20260506203012 | 25 | 146 | 3.2 | 12.9 | 0.00 | 0.00 | 0.00 | 29 | 1012.5 |
| 20260506201502 | 25 | 229 | 8.0 | 16.1 | 0.00 | 0.00 | 0.00 | 29 | 1012.8 |
| 20260506200001 | 24 | 169 | 6.4 | 16.1 | 0.00 | 0.00 | 0.00 | 28 | 1012.9 |
| 20260506194557 | 23 | 229 | 4.8 | 12.9 | 0.00 | 0.00 | 0.00 | 30 | 1013.0 |
| 20260506193056 | 23 | 197 | 4.8 | 14.5 | 0.00 | 0.00 | 0.00 | 29 | 1013.2 |
| 20260506191553 | 22 | 167 | 1.6 | 8.0 | 0.00 | 0.00 | 0.00 | 31 | 1013.4 |
| 20260506190048 | 21 | 211 | 4.8 | 8.0 | 0.00 | 0.00 | 0.00 | 32 | 1013.4 |
| 20260506184546 | 20 | 234 | 6.4 | 12.9 | 0.00 | 0.00 | 0.00 | 34 | 1013.6 |
| 20260506183043 | 21 | 263 | 0.0 | 11.3 | 0.00 | 0.00 | 0.00 | 34 | 1013.7 |
| 20260506181538 | 20 | 163 | 4.8 | 9.7 | 0.00 | 0.00 | 0.00 | 35 | 1013.8 |
| 20260506180033 | 20 | 217 | 3.2 | 11.3 | 0.00 | 0.00 | 0.00 | 34 | 1014.0 |
| 20260506174529 | 19 | 250 | 4.8 | 9.7 | 0.00 | 0.00 | 0.00 | 37 | 1014.1 |
| 20260506173024 | 18 | 192 | 4.8 | 9.7 | 0.00 | 0.00 | 0.00 | 38 | 1014.1 |
| 20260506171521 | 17 | 203 | 1.6 | 11.3 | 0.00 | 0.00 | 0.00 | 41 | 1014.1 |
| 20260506170016 | 17 | 198 | 1.6 | 9.7 | 0.00 | 0.00 | 0.00 | 40 | 1014.2 |
| 20260506164511 | 16 | 248 | 1.6 | 8.0 | 0.00 | 0.00 | 0.00 | 43 | 1014.2 |
| 20260506163009 | 15 | 272 | 1.6 | 8.0 | 0.00 | 0.00 | 0.00 | 46 | 1014.3 |
| 20260506161503 | 13 | 248 | 0.0 | 6.4 | 0.00 | 0.00 | 0.00 | 47 | 1014.4 |
| 20260506160110 | 12 | 217 | 0.0 | 4.8 | 0.00 | 0.00 | 0.00 | 48 | 1014.3 |
| 20260506154559 | 11 | 271 | 0.0 | 4.8 | 0.00 | 0.00 | 0.00 | 48 | 1014.4 |
| 20260506153051 | 10 | 169 | 0.0 | 1.6 | 0.00 | 0.00 | 0.00 | 48 | 1014.4 |
| 20260506151548 | 10 | 161 | 0.0 | 3.2 | 0.00 | 0.00 | 0.00 | 48 | 1014.5 |
| 20260506150057 | 9 | 61 | 0.0 | 1.6 | 0.00 | 0.00 | 0.00 | 48 | 1014.5 |
| 20260506144601 | 8 | 61 | 0.0 | 1.6 | 0.00 | 0.00 | 0.00 | 49 | 1014.5 |
| 20260506143052 | 8 | 53 | 0.0 | 1.6 | 0.00 | 0.00 | 0.00 | 50 | 1014.5 |
| 20260506141544 | 7 | 53 | 0.0 | 0.0 | 0.00 | 0.00 | 0.00 | 50 | 1014.6 |
| 20260506140056 | 7 | 53 | 0.0 | 4.8 | 0.00 | 0.00 | 0.00 | 51 | 1014.3 |
| 20260506134539 | 7 | 53 | 0.0 | 0.0 | 0.00 | 0.00 | 0.00 | 51 | 1014.3 |
| 20260506133037 | 7 | 53 | 0.0 | 0.0 | 0.00 | 0.00 | 0.00 | 51 | 1014.2 |
| 20260506131542 | 7 | 53 | 0.0 | 0.0 | 0.00 | 0.00 | 0.00 | 52 | 1014.0 |
| 20260506130034 | 7 | 53 | 0.0 | 4.8 | 0.00 | 0.00 | 0.00 | 53 | 1013.9 |
| 20260506124533 | 7 | 52 | 0.0 | 0.0 | 0.00 | 0.00 | 0.00 | 54 | 1013.8 |
| 20260506123038 | 7 | 52 | 0.0 | 0.0 | 0.00 | 0.00 | 0.00 | 54 | 1013.7 |
| 20260506121528 | 7 | 52 | 0.0 | 1.6 | 0.00 | 0.00 | 0.00 | 54 | 1013.6 |
| 20260506120032 | 7 | 51 | 0.0 | 3.2 | 0.00 | 0.00 | 0.00 | 55 | 1013.5 |
| 20260506114526 | 7 | 51 | 0.0 | 6.4 | 0.00 | 0.00 | 0.00 | 55 | 1013.5 |
| 20260506113032 | 7 | 61 | 0.0 | 3.2 | 0.00 | 0.00 | 0.00 | 54 | 1013.4 |
| 20260506111524 | 7 | 60 | 1.6 | 6.4 | 0.00 | 0.00 | 0.00 | 54 | 1013.4 |
| 20260506110035 | 7 | 60 | 3.2 | 6.4 | 0.00 | 0.00 | 0.00 | 55 | 1013.5 |
| 20260506104526 | 7 | 56 | 3.2 | 6.4 | 0.00 | 0.00 | 0.00 | 55 | 1013.4 |
| 20260506103024 | 7 | 59 | 3.2 | 6.4 | 0.00 | 0.00 | 0.00 | 55 | 1013.4 |
| 20260506101518 | 7 | 45 | 1.6 | 6.4 | 0.00 | 0.00 | 0.00 | 56 | 1013.4 |
| 20260506100020 | 8 | 45 | 0.0 | 4.8 | 0.00 | 0.00 | 0.00 | 56 | 1013.5 |
| 20260506094516 | 8 | 45 | 3.2 | 6.4 | 0.00 | 0.03 | 0.00 | 56 | 1013.6 |
| 20260506093013 | 8 | 45 | 3.2 | 6.4 | 0.00 | 0.03 | 0.00 | 56 | 1013.7 |
| 20260506091511 | 8 | 45 | 1.6 | 3.2 | 0.00 | 0.03 | 0.00 | 56 | 1013.7 |
| 20260506090009 | 8 | 45 | 0.0 | 3.2 | 0.00 | 0.03 | 0.00 | 56 | 1013.7 |
| 20260506084507 | 8 | 45 | 1.6 | 6.4 | 0.00 | 0.03 | 0.00 | 57 | 1013.6 |
| 20260506083006 | 8 | 35 | 1.6 | 6.4 | 0.00 | 0.03 | 0.00 | 57 | 1013.7 |
| 20260506081507 | 9 | 35 | 1.6 | 4.8 | 0.00 | 0.03 | 0.00 | 56 | 1013.8 |
| 20260506073058 | 9 | 40 | 4.8 | 6.4 | 0.00 | 0.03 | 0.00 | 56 | 1013.7 |
| 20260506071555 | 10 | 40 | 3.2 | 6.4 | 0.00 | 0.03 | 0.00 | 56 | 1013.5 |
| 20260506061550 | 10 | 86 | 3.2 | 6.4 | 0.00 | 0.03 | 0.03 | 55 | 1012.7 |
| 20260506044548 | 12 | 209 | 1.6 | 8.0 | 0.00 | 0.03 | 0.03 | 49 | 1011.9 |
| 20260506043040 | 12 | 214 | 4.8 | 9.7 | 0.00 | 0.03 | 0.03 | 49 | 1011.8 |
| 20260506041542 | 13 | 230 | 3.2 | 6.4 | 0.00 | 0.03 | 0.03 | 49 | 1011.6 |
| 20260506040037 | 13 | 203 | 3.2 | 11.3 | 0.00 | 0.03 | 0.03 | 48 | 1011.4 |
| 20260506034545 | 13 | 184 | 0.0 | 8.0 | 0.00 | 0.03 | 0.03 | 47 | 1011.3 |
| 20260506033035 | 13 | 226 | 1.6 | 8.0 | 0.00 | 0.03 | 0.03 | 46 | 1011.1 |
| 20260506031543 | 13 | 199 | 1.6 | 11.3 | 0.00 | 0.03 | 0.03 | 46 | 1010.9 |
| 20260506030032 | 14 | 198 | 3.2 | 8.0 | 0.00 | 0.03 | 0.03 | 46 | 1010.8 |
| 20260506024533 | 14 | 217 | 4.8 | 12.9 | 0.00 | 0.03 | 0.03 | 50 | 1010.4 |
| 20260506023030 | 15 | 221 | 6.4 | 11.3 | 0.00 | 0.03 | 0.03 | 50 | 1010.1 |
| 20260506021530 | 15 | 205 | 3.2 | 14.5 | 0.00 | 0.03 | 0.03 | 48 | 1010.1 |
| 20260506020031 | 16 | 211 | 1.6 | 14.5 | 0.00 | 0.03 | 0.03 | 46 | 1010.0 |
| 20260506014527 | 16 | 185 | 4.8 | 14.5 | 0.00 | 0.03 | 0.03 | 40 | 1009.8 |
| 20260506013027 | 16 | 184 | 3.2 | 16.1 | 0.00 | 0.03 | 0.03 | 41 | 1009.9 |
| 20260506011526 | 16 | 160 | 4.8 | 11.3 | 0.00 | 0.03 | 0.03 | 40 | 1009.7 |
| 20260506010047 | 16 | 155 | 6.4 | 16.1 | 0.00 | 0.03 | 0.03 | 40 | 1009.7 |
| 20260506004525 | 16 | 184 | 4.8 | 12.9 | 0.00 | 0.03 | 0.03 | 41 | 1009.6 |
| 20260506003025 | 16 | 157 | 4.8 | 14.5 | 0.00 | 0.03 | 0.03 | 41 | 1009.5 |
| 20260506001529 | 16 | 169 | 4.8 | 17.7 | 0.00 | 0.03 | 0.03 | 41 | 1009.5 |
| 20260506000023 | 16 | 215 | 8.0 | 22.5 | 0.00 | 0.03 | 0.03 | 41 | 1009.1 |
| 20260505234523 | 16 | 165 | 4.8 | 11.3 | 0.00 | 0.03 | 0.03 | 43 | 1009.2 |
| 20260505233023 | 16 | 228 | 1.6 | 14.5 | 0.00 | 0.03 | 0.03 | 42 | 1009.2 |
| 20260505231522 | 16 | 135 | 6.4 | 16.1 | 0.00 | 0.03 | 0.03 | 42 | 1009.2 |
| 20260505230026 | 16 | 175 | 3.2 | 16.1 | 0.00 | 0.03 | 0.03 | 42 | 1009.2 |
| 20260505224520 | 16 | 154 | 4.8 | 16.1 | 0.00 | 0.03 | 0.03 | 42 | 1009.3 |